Regional Weather Roundup
Issued by NWS Charleston, SC

Current Version | Previous Version | Graphics & Text | Print | Product List | Glossary On
Versions: 1 2 3 4 5 6 7 8 9 10 11 12 13 14 15 16 17 18 19 20 21 22 23 24 25 26 27 28 29 30 31 32 33 34 35 36 37 38 39 40 41 42 43 44 45 46 47 48 49 50
000
ASUS42 KCHS 202312
RWRCHS

Regional Weather Roundup
National Weather Service Charleston SC
700 PM EDT SUN MAY 20 2018

NOTE: "fair" indicates few or no clouds below 12,000 feet with no
significant weather and/or obstructions to visibility.

Not all stations are quality controlled. Use data with caution,
especially dewpoint observations.

SCZ027-030-031-034>040-042>050-210000-
...Southeast South Carolina...

CITY           SKY/WX    TMP DP  RH WIND       PRES   REMARKS
N Charleston   CLOUDY    77  69  76 SW7       30.14R
Waterfront Prk   N/A     77  71  82 SW6       29.98S
Mount Pleasant FAIR      77  70  78 S5        30.14S
Johns Island   FAIR      77  72  83 SW6       30.14S
Pinopolis        N/A     75  73  94 SW5       30.07R
Moncks Corner  FAIR      75  70  83 SW7       30.14R
Summerville    FAIR      73  70  88 S3        30.15S
Beaufort MCAS  CLOUDY    76  71  85 S5        30.14S
Beaufort Arpt  MOCLDY    75  68  78 SW5       30.14S
Hilton Head Is DRIZZLE   75  70  83 S3        30.15S
Walterboro     MOCLDY    73  72  94 CALM      30.15S
Allendale      FAIR      75  72  88 CALM      30.13S

...Southern Midlands and Pee Dee...

CITY           SKY/WX    TMP DP  RH WIND       PRES   REMARKS
Georgetown     FAIR      77  73  88 SW6       30.15R
Kingstree      FAIR      77  73  88 S3        30.14R THUNDER
Orangeburg     PTSUNNY   75  70  84 S8        30.13F
Barnwell       MOCLDY    77  72  83 VRB5      30.14R
Aiken          MOCLDY    73  72  94 CALM      30.17R
Manning        TSTM      72  68  88 SW6       30.14R
Columbia       CLOUDY    79  74  84 S7        30.12R
Sumter         CLOUDY    76  69  79 S8        30.11R
Florence       FAIR      80  71  74 CALM      30.13R
Myrtle Beach   FAIR      77  71  82 S6        30.14R
N Myrtle Beach FAIR      77  71  82 SW14      30.13S

$$

GAZ063-065-086>088-099>101-113>116-118-119-134>141-150-210000-
...Southeast Georgia...

CITY           SKY/WX    TMP DP  RH WIND       PRES   REMARKS
Savannah Arpt  CLOUDY    73  71  93 W3        30.15F
Hunter AAF     FAIR      73  70  89 W3        30.12S
Fort Stewart   FAIR      73  71  93 N5        30.13F
Statesboro     DRIZZLE   73  70  90 S3        30.15S
Sylvania       DRIZZLE   75  73  91 SW5       30.16F
Claxton        DRIZZLE   73  71  95 CALM      30.16S

...CSRA, Central and far Southeast Georgia...

CITY           SKY/WX    TMP DP  RH WIND       PRES   REMARKS
Thomson        CLOUDY    73  69  88 CALM      30.18S
Augusta-Bush   FAIR      77  72  84 S6        30.12R
Augusta-Daniel PTSUNNY   79  71  76 S9        30.13R
Swainsboro     RAIN      68  66  94 SW5       30.17F
Vidalia        LGT RAIN  70  64  83 CALM      30.16F
Eastman        DRIZZLE   72  63  74 S6        30.18S
Hazlehurst     DRIZZLE   72  68  87 CALM      30.15S
Alma           LGT RAIN  73  70  90 NE3       30.15R FOG
Waycross       DRIZZLE   73  70  91 E6        30.14S
Jesup          FAIR      73  70  88 CALM      30.15S
Baxley         RAIN      70  70 100 E3        30.15S
Brunswick      PTSUNNY   73  68  83 NE3       30.14F
Saint Simons   PTSUNNY   76  71  85 NE6       30.13S

$$

SCZ027-028-034-036>038-045-046-048>050-GAZ119-141-210000-
...Lake and Supplemental Coastal Observations...

STATION/POSITION TIME  TEMP    WIND        PRES    WAVE   SWELL
                       AIR SEA DIR/SP/G            HT/PER HT/PER/DIR
                 (UTC) (F)     (DEG/KT/KT) (MB)    (FT/S) (FT/S/D)
Winyah Bay       2145   79     230/  9     1020.0
Lake Murray      2220   78     230/  4/  6 1019.3
ACE Basin NERRS  2145   77        CALM     1021.0
Fort Pulaski     2236   74 78  300/  4/  5 1021.1S
Sapelo Island    2200   75      40/  3     1020.0

$$

ANZ835-935-AMZ111-154-330-350-352-354-370-450-454-472-210000-
...C-MAN and Buoy Observations...

STATION/POSITION TIME  TEMP    WIND        PRES    WAVE   SWELL
                       AIR SEA DIR/SP/G            HT/PER HT/PER/DIR
                 (UTC) (F)     (DEG/KT/KT) (MB)    (FT/S) (FT/S/D)
Buoy 41004       2250      74  200/  8/ 10 1020.8S   6/ 9   5/150/ 9
Buoy 41008       2250   75 76   30/  4/  6 1020.3F   3/ 9   3/110/ 9
Folly Beach CMAN 2200   75     210/ 12/ 13 1021.2S
Capers Nearshore 2208   76 76  230/ 12/ 16 1021.2F
Fripp Nearshore  2208   74 78  230/  6/ 10 1020.5S


STATION/POSITION TIME  TEMP    WIND        PRES    WAVE   SWELL
                       AIR SEA DIR/SP/G            HT/PER HT/PER/DIR
                 (UTC) (F)     (DEG/KT/KT) (MB)    (FT/S) (FT/S/D)
5E St. Marys GA  2300      75                N/A     3/ 9
Frying Pan Buoy  2250   75 76  200/ 12/ 16 1021.0S   5/ 7   3/150/ 7
Buoy 41025       2250   75 75  210/ 21/ 27 1020.7R   6/ 8   3/150/ 8
Cape Lookout NC  2200          220/ 10/ 14 1020.6F
Buoy 41002       2250      77  170/ 10/ 14 1022.6R   5/ 8   5/140/ 8
Buoy 41010       2250   77 78  110/ 16/ 19 1020.1S   6/ 9   5/120/ 9
St Augustine FL  2300   76 76   70/  5/  5 1019.5S


$$




USA.gov is the U.S. government's official web portal to all federal, state and local government web resources and services.